Погода в Озёрном

Россия / Тверская область     57°52′10″N   33°41′34″E
темп.,
°C
ветер,
м/с
пор.,
м/с
влажн.,
%
обл.,
%
осадки,
мм/ч
давл.,
гПа
погр.,
м
19 апреля, пн
пн1900:00+6всв3117275 0.0 1026425
03:00+5всв3981100 0.0 1027379
06:00+3св389174 0.0 1027313
09:00+7всв467563 0.0 1026620
12:00+9всв466197 0.0 10261150
15:00+9в4658100 0.0 10261398
18:00+9в364976 0.0 10251613
21:00+5всв3106287 0.0 1026354
20 апреля, вт
вт2000:00+4всв396683 0.0 1026372
03:00+2всв3107858 0.0 1025373
06:000всв3107564 0.0 1024416
09:00+4в58565 0.0 1023803
12:00+7в585696 0.0 10221235
15:00+8вюв5857100 0.0 10201417
18:00+5в5881100 0.0 1019889
21:00+3в4996100 0.1 1017732
21 апреля, ср
ср2100:00+3всв3996100 0.3 1014592
03:00+3всв4997100 1.1 1011674
06:00+1св41097100 2.8 1008420
09:00+1св3899100 6.4 1005335
12:00+2всв1399100 1.7 1003190
15:00+2з1198100 2.1 1002206
18:00+2зюз3699100 0.3 1002255
21:00+1юз3897100 0.6 1004465
22 апреля, чт
чт2200:00+2юз3998100 0.2 1004753
03:00+2юз41197100 1.1 1005815
06:00+2юз31098100 1.4 1006698
09:00+3юз3895100 2.3 1008687
12:00+8зюз3676100 0.1 10091044
15:00+11зюз3663100 0.1 10101405
18:00+11ююз127011 0.1 1011322
21:00+6юв22897 0.1 101330
23 апреля, пт
пт2300:00+4ююв279390 0.0 1012111
03:00+4ююв39965 0.0 1012184
06:00+4ююв3109728 0.0 1011227
09:00+10ююв51375100 0.0 1009760
12:00+13ю61472100 0.3 10081650
15:00+5з4895100 1.6 1010404
18:00+3з4897100 2.2 1009410
21:00+2з2394100 5.1 1010413